Buffalo, WY

12:16 AM MDT on May 26, 2017 (GMT -0600)
Johnson County

Weather History for KBYG - October, 2013

Change the Weather History Date:

Tuesday, October 1, 2013

  Actual Average Record
Temperature  
Mean Temperature 55 °F 51 °F  
Max Temperature 71 °F 63 °F 89 °F (1957)
Min Temperature 39 °F 39 °F 29 °F (2004)
Degree Days  
Heating Degree Days 10 14  
Month to date heating degree days 10 14  
Since 1 July heating degree days 162 328  
Cooling Degree Days 0 0  
Month to date cooling degree days 0 0  
Year to date cooling degree days 709 491  
Growing Degree Days 6 (Base 50)    
Moisture  
Dew Point 37 °F    
Average Humidity 54    
Maximum Humidity 82    
Minimum Humidity 26    
Precipitation  
Precipitation 0.00 in 0.05 in 0.32 in (2002)
Month to date precipitation 0.00 0.05  
Year to date precipitation 7.76 11.63  
Sea Level Pressure  
Sea Level Pressure 29.88 in    
Wind  
Wind Speed 10 mph (SW)    
Max Wind Speed 24 mph    
Max Gust Speed 29 mph    
Visibility 10 miles    
Events      
T = Trace of Precipitation, MM = Missing Value Source: NWS Daily Summary

Daily Weather History Graph

Daily Weather History Graph

Search for Another Location

Airport or City:

Trip Planner

Search our weather history database for the weather conditions in past years. The results will help you decide how hot, cold, wet, or windy it might be!

Date:

Astronomy

Oct. 01, 2013 Rise Set
Actual Time 7:05 AM MDT 6:47 PM MDT
Civil Twilight 6:36 AM MDT 7:15 PM MDT
Nautical Twilight 6:02 AM MDT 7:49 PM MDT
Astronomical Twilight 5:28 AM MDT 8:23 PM MDT
Moon 3:35 AM MDT (10/1) 4:57 PM MDT (10/1)
Length of Visible Light 12h 39m
Length of Day
11h 41m
Waning Crescent, 11% of the Moon is Illuminated
Oct 1
Waning Crescent
Oct 4
New
Oct 11
First Quarter
Oct 18
Full
Oct 26
Last Quarter

Hourly Weather History & Observations

Time (MDT) Temp. Windchill Dew Point Humidity Pressure Visibility Wind Dir Wind Speed Gust Speed Precip Events Conditions
12:53 AM 44.1 °F 40.8 °F 37.9 °F 79% 29.84 in 10.0 mi South 5.8 mph - N/A   Clear
1:53 AM 44.1 °F 41.5 °F 37.9 °F 79% 29.85 in 10.0 mi South 4.6 mph - N/A   Clear
2:53 AM 45.0 °F 39.7 °F 37.0 °F 74% 29.86 in 10.0 mi South 10.4 mph - N/A   Clear
3:53 AM 44.1 °F 40.1 °F 36.0 °F 73% 29.93 in 10.0 mi SSW 6.9 mph - N/A   Clear
4:53 AM 44.1 °F - 35.1 °F 71% 29.94 in 10.0 mi Calm Calm - N/A   Mostly Cloudy
5:53 AM 44.1 °F 42.5 °F 36.0 °F 73% 29.96 in 10.0 mi SW 3.5 mph - N/A   Mostly Cloudy
6:53 AM 42.1 °F - 35.1 °F 76% 29.98 in 10.0 mi Calm Calm - N/A   Clear
7:53 AM 42.1 °F - 37.0 °F 82% 29.99 in 10.0 mi Calm Calm - N/A   Clear
8:53 AM 48.9 °F - 37.0 °F 64% 29.96 in 10.0 mi SSE 17.3 mph 23.0 mph N/A   Clear
9:53 AM 52.0 °F - 32.0 °F 47% 29.96 in 10.0 mi SSE 23.0 mph 28.8 mph N/A   Clear
10:53 AM 53.1 °F - 36.0 °F 52% 29.94 in 10.0 mi SE 17.3 mph 23.0 mph N/A   Clear
11:53 AM 57.0 °F - 41.0 °F 55% 29.90 in 10.0 mi SSE 12.7 mph 19.6 mph N/A   Clear
12:53 PM 62.1 °F - 39.9 °F 44% 29.86 in 10.0 mi SE 11.5 mph - N/A   Clear
1:53 PM 66.9 °F - 37.9 °F 34% 29.80 in 10.0 mi South 16.1 mph - N/A   Clear
2:53 PM 69.1 °F - 33.1 °F 26% 29.77 in 10.0 mi SSE 12.7 mph 20.7 mph N/A   Clear
3:53 PM 69.1 °F - 34.0 °F 27% 29.78 in 10.0 mi WNW 9.2 mph - N/A   Clear
4:53 PM 64.9 °F - 41.0 °F 42% 29.80 in 10.0 mi NNW 9.2 mph 16.1 mph N/A   Clear
5:53 PM 62.1 °F - 42.1 °F 48% 29.82 in 10.0 mi NNW 9.2 mph - N/A   Clear
6:53 PM 57.0 °F - 39.9 °F 53% 29.85 in 10.0 mi NW 10.4 mph - N/A   Clear
7:53 PM 51.1 °F - 39.9 °F 66% 29.87 in 10.0 mi WNW 9.2 mph - N/A   Clear
8:53 PM 54.0 °F - 37.9 °F 55% 29.85 in 10.0 mi NW 12.7 mph - N/A   Clear
9:53 PM 52.0 °F - 36.0 °F 54% 29.86 in 10.0 mi NNW 11.5 mph - N/A   Clear
10:53 PM 53.1 °F - 35.1 °F 50% 29.86 in 10.0 mi NW 12.7 mph - N/A   Mostly Cloudy
11:53 PM 48.9 °F - 35.1 °F 59% 29.86 in 10.0 mi NW 13.8 mph - N/A   Scattered Clouds